User: anonymous   Login
Location: Bridgewater
(44.3670°N, 64.5170°W)
Time: 04:21:18
(UTC-03:00)
Language:

OPAL - Orbit

View from above orbital plane
View from above orbital plane
View from above satellite
View from above satellite

Ground track
Ground track

The orbit data is extracted from the following two-line orbital elements,

1 26063U 00004C   15240.23133329  .00000042  00000-0  34222-4 0  9992
2 26063 100.2065 112.1642 0036715 007.8922 352.2829 14.36558229816764
Epoch (UTC): 28 August 2015 05:33:07
Eccentricity: 0.0036715
inclination: 100.2065°
perigee height: 743 km
apogee height: 796 km
right ascension of ascending node: 112.1642°
argument of perigee: 7.8922°
revolutions per day: 14.36558229
mean anomaly at epoch: 352.2829°
orbit number at epoch: 81676

The dashed part of the orbit path shows where the satellite is in the earth's shadow,  

DLR